sat.trackr.live / text

‹ back to catalog

STARLINK-6270

NORAD 56421 · 2023-061AZ

PAYLOAD ACTIVE UNKNOWN

§ Identity

Operator
Country
US
Launch date
2023-05-04
Launch site
AFETR
Launch vehicle
Mass (kg)
RCS (m²)

Purposes: comms

External: N2YO · Heavens-Above · Gunter

§ Orbital elements

Epoch: 2026-05-25T04:00:03.998880Z

Period
94.27 min
Inclination
43.0006°
Eccentricity
0.0001503
Mean motion
15.27570647 rev/d
Perigee alt
482.0 km
Apogee alt
484.1 km
Semi-major
6,861.2 km
B*
6.3001e-7
RAAN
111.2258°
Arg perigee
283.0275°
Mean anomaly
89.4806°
Rev number
584

§ Raw data

STARLINK-62701 56421U 23061AZ  26145.16671295 -.00000245  00000+0  63001-6 0  99922 56421  43.0006 111.2258 0001503 283.0275  89.4806 15.27570647  5845

JSON: /api/v1/satellites/56421 · /tle

For live sub-satellite position, see the globe view (requires WebGL).

§ Visibility from observer

Set your observer location to see the next 7 days of passes ≥ 10°. The values pass through the URL so the page stays shareable.

No JS? Fill the form by hand. The geolocation button needs JavaScript.